Time,TemperatureF,DewpointF,PressureIn,WindDirection,WindDirectionDegrees,WindSpeedMPH,WindSpeedGustMPH,Humidity,HourlyPrecipIn,Conditions,Clouds,dailyrainin,SoftwareType,DateUTC
2013-02-28 00:00:00,32.4,31.8,28.83,ENE,68,8.0,11.0,98,0.00,,,0.00,meteohub,2013-02-28 06:00:00,
2013-02-28 00:05:00,32.4,31.8,28.83,East,90,9.0,11.0,98,0.00,,,0.00,meteohub,2013-02-28 06:05:00,
2013-02-28 00:11:00,32.4,31.8,28.83,ENE,68,7.0,11.0,98,0.00,,,0.00,meteohub,2013-02-28 06:11:00,
2013-02-28 00:16:00,32.4,31.8,28.83,ENE,68,6.0,11.0,98,0.00,,,0.00,meteohub,2013-02-28 06:16:00,
2013-02-28 00:21:00,32.4,31.8,28.83,ENE,68,8.0,11.0,98,0.00,,,0.00,meteohub,2013-02-28 06:21:00,
2013-02-28 00:26:00,32.4,31.8,28.86,ENE,68,4.0,11.0,98,0.00,,,0.00,meteohub,2013-02-28 06:26:00,
2013-02-28 00:31:00,32.4,31.8,28.86,ENE,68,2.0,11.0,98,0.00,,,0.00,meteohub,2013-02-28 06:31:00,
2013-02-28 00:36:00,32.4,31.8,28.86,ESE,112,4.0,10.0,98,0.00,,,0.00,meteohub,2013-02-28 06:36:00,
2013-02-28 00:41:00,32.4,31.8,28.86,ENE,68,3.0,11.0,98,0.00,,,0.00,meteohub,2013-02-28 06:41:00,
2013-02-28 00:46:00,32.4,31.8,28.86,ENE,68,6.0,11.0,98,0.00,,,0.00,meteohub,2013-02-28 06:46:00,
2013-02-28 00:51:00,32.4,31.8,28.86,East,90,7.0,11.0,98,0.00,,,0.00,meteohub,2013-02-28 06:51:00,
2013-02-28 00:56:00,32.4,31.8,28.86,NNE,22,6.0,11.0,98,0.00,,,0.00,meteohub,2013-02-28 06:56:00,
2013-02-28 01:01:00,32.4,31.8,28.86,ENE,68,4.0,10.0,98,0.00,,,0.00,meteohub,2013-02-28 07:01:00,
2013-02-28 01:06:00,32.4,31.8,28.86,East,90,6.0,9.0,98,0.00,,,0.00,meteohub,2013-02-28 07:06:00,
2013-02-28 01:11:00,32.4,31.8,28.86,ENE,68,7.0,10.0,98,0.00,,,0.00,meteohub,2013-02-28 07:11:00,
2013-02-28 01:16:00,32.4,31.8,28.86,East,90,4.0,11.0,98,0.00,,,0.00,meteohub,2013-02-28 07:16:00,
2013-02-28 01:21:00,32.4,31.8,28.86,ENE,68,3.0,11.0,98,0.00,,,0.00,meteohub,2013-02-28 07:21:00,
2013-02-28 01:26:00,32.5,32.0,28.86,East,90,3.0,11.0,98,0.00,,,0.00,meteohub,2013-02-28 07:26:00,
2013-02-28 01:31:00,32.5,32.0,28.86,NNE,22,8.0,9.0,98,0.00,,,0.00,meteohub,2013-02-28 07:31:00,
2013-02-28 01:36:00,32.5,32.0,28.86,ENE,68,8.0,9.0,98,0.00,,,0.00,meteohub,2013-02-28 07:36:00,
2013-02-28 01:41:00,32.5,32.0,28.86,ESE,112,4.0,9.0,98,0.00,,,0.00,meteohub,2013-02-28 07:41:00,
2013-02-28 01:46:00,32.5,32.0,28.86,ENE,68,6.0,9.0,98,0.00,,,0.00,meteohub,2013-02-28 07:46:00,
2013-02-28 01:51:00,32.5,32.0,28.86,NNE,22,6.0,9.0,98,0.00,,,0.00,meteohub,2013-02-28 07:51:00,
2013-02-28 01:56:00,32.5,32.0,28.86,NNE,22,8.0,9.0,98,0.00,,,0.00,meteohub,2013-02-28 07:56:00,
2013-02-28 02:01:00,32.5,32.0,28.86,ENE,68,8.0,9.0,98,0.00,,,0.00,meteohub,2013-02-28 08:01:00,
2013-02-28 02:06:00,32.5,32.0,28.86,ENE,68,7.0,9.0,98,0.00,,,0.00,meteohub,2013-02-28 08:06:00,
2013-02-28 02:11:00,32.5,32.0,28.86,North,0,6.0,11.0,98,0.00,,,0.00,meteohub,2013-02-28 08:11:00,
2013-02-28 02:16:00,32.5,32.0,28.86,ENE,68,6.0,13.0,98,0.00,,,0.00,meteohub,2013-02-28 08:16:00,
2013-02-28 02:21:00,32.5,32.0,28.86,NNE,22,10.0,13.0,98,0.00,,,0.00,meteohub,2013-02-28 08:21:00,
2013-02-28 02:26:00,32.5,32.0,28.89,ENE,68,6.0,13.0,98,0.00,,,0.00,meteohub,2013-02-28 08:26:00,
2013-02-28 02:31:00,32.5,32.0,28.89,East,90,6.0,10.0,98,0.00,,,0.00,meteohub,2013-02-28 08:31:00,
2013-02-28 02:36:00,32.5,32.0,28.89,ENE,68,3.0,10.0,98,0.00,,,0.00,meteohub,2013-02-28 08:36:00,
2013-02-28 02:41:00,32.5,32.0,28.86,ENE,68,6.0,11.0,98,0.00,,,0.00,meteohub,2013-02-28 08:41:00,
2013-02-28 02:46:00,32.7,32.2,28.86,ENE,68,3.0,11.0,98,0.00,,,0.00,meteohub,2013-02-28 08:46:00,
2013-02-28 02:51:00,32.5,32.0,28.86,East,90,5.0,9.0,98,0.00,,,0.00,meteohub,2013-02-28 08:51:00,
2013-02-28 02:56:00,32.5,32.0,28.89,NNE,22,7.0,9.0,98,0.00,,,0.00,meteohub,2013-02-28 08:56:00,
2013-02-28 03:01:00,32.5,32.0,28.89,ENE,68,6.0,8.0,98,0.00,,,0.00,meteohub,2013-02-28 09:01:00,
2013-02-28 03:06:00,32.5,32.0,28.89,NNE,22,4.0,8.0,98,0.00,,,0.00,meteohub,2013-02-28 09:06:00,
2013-02-28 03:11:00,32.5,32.0,28.89,ENE,68,8.0,11.0,98,0.00,,,0.00,meteohub,2013-02-28 09:11:00,
2013-02-28 03:16:00,32.5,32.0,28.89,ENE,68,3.0,11.0,98,0.00,,,0.00,meteohub,2013-02-28 09:16:00,
2013-02-28 03:21:00,32.5,32.0,28.89,NNE,22,4.0,9.0,98,0.00,,,0.00,meteohub,2013-02-28 09:21:00,
2013-02-28 03:26:00,32.5,32.0,28.89,ENE,68,6.0,8.0,98,0.00,,,0.00,meteohub,2013-02-28 09:26:00,
2013-02-28 03:31:00,32.5,32.0,28.89,ENE,68,3.0,8.0,98,0.00,,,0.00,meteohub,2013-02-28 09:31:00,
2013-02-28 03:36:00,32.5,32.0,28.89,ENE,68,4.0,8.0,98,0.00,,,0.00,meteohub,2013-02-28 09:36:00,
2013-02-28 03:41:00,32.5,32.0,28.89,East,90,6.0,8.0,98,0.00,,,0.00,meteohub,2013-02-28 09:41:00,
2013-02-28 03:46:00,32.5,32.0,28.89,ESE,112,3.0,8.0,98,0.00,,,0.00,meteohub,2013-02-28 09:46:00,
2013-02-28 03:51:00,32.5,32.0,28.89,NNE,22,4.0,8.0,98,0.00,,,0.00,meteohub,2013-02-28 09:51:00,
2013-02-28 03:56:00,32.5,32.0,28.89,ENE,68,4.0,8.0,98,0.00,,,0.00,meteohub,2013-02-28 09:56:00,
2013-02-28 04:01:00,32.7,32.2,28.89,ENE,68,4.0,9.0,98,0.00,,,0.00,meteohub,2013-02-28 10:01:00,
2013-02-28 04:06:00,32.7,32.2,28.89,East,90,8.0,9.0,98,0.00,,,0.00,meteohub,2013-02-28 10:06:00,
2013-02-28 04:11:00,32.7,32.2,28.92,East,90,2.0,9.0,98,0.00,,,0.00,meteohub,2013-02-28 10:11:00,
2013-02-28 04:16:00,32.7,32.2,28.92,ENE,68,5.0,8.0,98,0.00,,,0.00,meteohub,2013-02-28 10:16:00,
2013-02-28 04:21:00,32.7,32.2,28.92,ENE,68,2.0,8.0,98,0.00,,,0.00,meteohub,2013-02-28 10:21:00,
2013-02-28 04:26:00,32.7,32.2,28.92,ESE,112,3.0,8.0,98,0.00,,,0.00,meteohub,2013-02-28 10:26:00,
2013-02-28 04:31:00,32.9,32.4,28.92,ESE,112,11.0,11.0,98,0.00,,,0.00,meteohub,2013-02-28 10:31:00,
2013-02-28 04:36:00,32.9,32.4,28.92,ESE,112,4.0,12.0,98,0.00,,,0.00,meteohub,2013-02-28 10:36:00,
2013-02-28 04:41:00,33.1,32.5,28.92,ENE,68,9.0,12.0,98,0.00,,,0.00,meteohub,2013-02-28 10:41:00,
2013-02-28 04:46:00,33.1,32.5,28.92,ENE,68,3.0,12.0,98,0.00,,,0.00,meteohub,2013-02-28 10:46:00,
2013-02-28 04:51:00,33.1,32.5,28.92,East,90,4.0,11.0,98,0.00,,,0.00,meteohub,2013-02-28 10:51:00,
2013-02-28 04:56:00,33.1,32.5,28.92,ENE,68,4.0,11.0,98,0.00,,,0.00,meteohub,2013-02-28 10:56:00,
2013-02-28 05:02:00,33.1,32.5,28.92,ESE,112,6.0,11.0,98,0.00,,,0.00,meteohub,2013-02-28 11:02:00,
2013-02-28 05:07:00,33.1,32.5,28.92,ENE,68,5.0,11.0,98,0.00,,,0.00,meteohub,2013-02-28 11:07:00,
2013-02-28 05:12:00,33.1,32.5,28.92,East,90,9.0,11.0,98,0.00,,,0.00,meteohub,2013-02-28 11:12:00,
2013-02-28 05:17:00,33.1,32.5,28.92,ENE,68,4.0,10.0,98,0.00,,,0.00,meteohub,2013-02-28 11:17:00,
2013-02-28 05:22:00,32.9,32.4,28.92,East,90,2.0,10.0,98,0.00,,,0.00,meteohub,2013-02-28 11:22:00,
2013-02-28 05:27:00,32.9,32.4,28.95,East,90,6.0,10.0,98,0.00,,,0.00,meteohub,2013-02-28 11:27:00,
2013-02-28 05:32:00,32.9,32.4,28.95,ENE,68,6.0,9.0,98,0.00,,,0.00,meteohub,2013-02-28 11:32:00,
2013-02-28 05:37:00,32.9,32.4,28.95,ENE,68,6.0,11.0,98,0.00,,,0.00,meteohub,2013-02-28 11:37:00,
2013-02-28 05:42:00,32.9,32.4,28.95,ESE,112,5.0,11.0,98,0.00,,,0.00,meteohub,2013-02-28 11:42:00,
2013-02-28 05:47:00,32.9,32.4,28.95,East,90,4.0,11.0,98,0.00,,,0.00,meteohub,2013-02-28 11:47:00,
2013-02-28 05:52:00,32.9,32.4,28.95,ENE,68,6.0,9.0,98,0.00,,,0.00,meteohub,2013-02-28 11:52:00,
2013-02-28 05:57:00,33.1,32.5,28.95,ESE,112,6.0,13.0,98,0.00,,,0.00,meteohub,2013-02-28 11:57:00,
2013-02-28 06:02:00,33.1,32.5,28.95,East,90,6.0,13.0,98,0.00,,,0.00,meteohub,2013-02-28 12:02:00,
2013-02-28 06:07:00,33.1,32.5,28.95,ENE,68,8.0,11.0,98,0.00,,,0.00,meteohub,2013-02-28 12:07:00,
2013-02-28 06:12:00,33.1,32.5,28.95,East,90,2.0,11.0,98,0.00,,,0.00,meteohub,2013-02-28 12:12:00,
2013-02-28 06:17:00,33.1,32.5,28.95,ENE,68,4.0,8.0,98,0.00,,,0.00,meteohub,2013-02-28 12:17:00,
2013-02-28 06:22:00,32.9,32.4,28.95,East,90,4.0,8.0,98,0.00,,,0.00,meteohub,2013-02-28 12:22:00,
2013-02-28 06:27:00,33.1,32.5,28.95,ENE,68,6.0,10.0,98,0.00,,,0.00,meteohub,2013-02-28 12:27:00,
2013-02-28 06:32:00,33.1,32.5,28.95,ENE,68,3.0,13.0,98,0.00,,,0.00,meteohub,2013-02-28 12:32:00,
2013-02-28 06:37:00,33.1,32.5,28.95,East,90,3.0,13.0,98,0.00,,,0.00,meteohub,2013-02-28 12:37:00,
2013-02-28 06:42:00,33.1,32.5,28.95,ENE,68,3.0,13.0,98,0.00,,,0.00,meteohub,2013-02-28 12:42:00,
2013-02-28 06:47:00,33.1,32.5,28.95,ENE,68,1.0,11.0,98,0.00,,,0.00,meteohub,2013-02-28 12:47:00,
2013-02-28 06:52:00,33.1,32.5,28.95,East,90,5.0,11.0,98,0.00,,,0.00,meteohub,2013-02-28 12:52:00,
2013-02-28 06:57:00,33.3,32.7,28.98,East,90,5.0,11.0,98,0.00,,,0.00,meteohub,2013-02-28 12:57:00,
2013-02-28 07:02:00,33.3,32.7,28.98,East,90,6.0,11.0,98,0.00,,,0.00,meteohub,2013-02-28 13:02:00,
2013-02-28 07:07:00,33.3,32.7,28.98,ENE,68,6.0,11.0,98,0.00,,,0.00,meteohub,2013-02-28 13:07:00,
2013-02-28 07:12:00,33.3,32.7,28.98,ENE,68,6.0,11.0,98,0.00,,,0.00,meteohub,2013-02-28 13:12:00,
2013-02-28 07:17:00,33.3,32.7,28.98,ENE,68,5.0,9.0,98,0.00,,,0.00,meteohub,2013-02-28 13:17:00,
2013-02-28 07:22:00,33.4,32.9,28.98,ENE,68,3.0,9.0,98,0.00,,,0.00,meteohub,2013-02-28 13:22:00,
2013-02-28 07:27:00,33.3,32.7,28.98,East,90,4.0,9.0,98,0.00,,,0.00,meteohub,2013-02-28 13:27:00,
2013-02-28 07:32:00,33.4,32.9,28.98,ESE,112,9.0,13.0,98,0.00,,,0.00,meteohub,2013-02-28 13:32:00,
2013-02-28 07:37:00,33.6,33.1,28.98,East,90,5.0,13.0,98,0.00,,,0.00,meteohub,2013-02-28 13:37:00,
2013-02-28 07:42:00,33.8,33.3,29.01,ENE,68,10.0,13.0,98,0.00,,,0.00,meteohub,2013-02-28 13:42:00,
2013-02-28 07:47:00,33.8,33.3,29.01,ESE,112,9.0,14.0,98,0.00,,,0.00,meteohub,2013-02-28 13:47:00,
2013-02-28 07:52:00,33.8,33.3,29.01,ESE,112,12.0,14.0,98,0.00,,,0.00,meteohub,2013-02-28 13:52:00,
2013-02-28 07:57:00,34.0,33.4,29.01,ENE,68,9.0,14.0,98,0.00,,,0.00,meteohub,2013-02-28 13:57:00,
2013-02-28 08:02:00,34.0,33.4,29.01,East,90,5.0,12.0,98,0.00,,,0.00,meteohub,2013-02-28 14:02:00,
2013-02-28 08:07:00,34.0,33.4,29.01,East,90,0.0,12.0,98,0.00,,,0.00,meteohub,2013-02-28 14:07:00,
2013-02-28 08:12:00,34.3,33.6,28.98,ENE,68,8.0,10.0,97,0.00,,,0.00,meteohub,2013-02-28 14:12:00,
2013-02-28 08:17:00,34.2,33.1,28.98,East,90,5.0,10.0,96,0.00,,,0.00,meteohub,2013-02-28 14:17:00,
2013-02-28 08:22:00,34.2,32.5,28.98,ENE,68,3.0,11.0,94,0.00,,,0.00,meteohub,2013-02-28 14:22:00,
2013-02-28 08:27:00,34.0,32.2,28.98,ENE,68,10.0,11.0,93,0.00,,,0.00,meteohub,2013-02-28 14:27:00,
2013-02-28 08:32:00,34.0,31.8,28.98,East,90,5.0,11.0,92,0.00,,,0.00,meteohub,2013-02-28 14:32:00,
2013-02-28 08:37:00,34.0,32.2,28.98,ENE,68,10.0,11.0,93,0.00,,,0.00,meteohub,2013-02-28 14:37:00,
2013-02-28 08:42:00,34.2,32.4,29.01,ESE,112,6.0,13.0,93,0.00,,,0.00,meteohub,2013-02-28 14:42:00,
2013-02-28 08:47:00,34.2,32.0,29.01,East,90,4.0,14.0,92,0.00,,,0.00,meteohub,2013-02-28 14:47:00,
2013-02-28 08:52:00,34.3,32.2,29.01,ENE,68,5.0,14.0,92,0.00,,,0.00,meteohub,2013-02-28 14:52:00,
2013-02-28 08:57:00,34.3,32.0,29.01,ENE,68,4.0,14.0,91,0.00,,,0.00,meteohub,2013-02-28 14:57:00,
2013-02-28 09:02:00,34.3,32.0,29.01,ENE,68,10.0,11.0,91,0.00,,,0.00,meteohub,2013-02-28 15:02:00,
2013-02-28 09:07:00,34.2,31.5,29.01,East,90,2.0,11.0,90,0.00,,,0.00,meteohub,2013-02-28 15:07:00,
2013-02-28 09:12:00,34.2,31.5,29.01,ESE,112,8.0,11.0,90,0.00,,,0.00,meteohub,2013-02-28 15:12:00,
2013-02-28 09:17:00,34.0,31.3,29.01,ENE,68,7.0,11.0,90,0.00,,,0.00,meteohub,2013-02-28 15:17:00,
2013-02-28 09:22:00,34.2,31.5,29.01,ESE,112,5.0,10.0,90,0.00,,,0.00,meteohub,2013-02-28 15:22:00,
2013-02-28 09:27:00,34.2,31.5,29.01,ESE,112,4.0,11.0,90,0.00,,,0.00,meteohub,2013-02-28 15:27:00,
2013-02-28 09:33:00,34.2,31.5,29.01,ENE,68,9.0,11.0,90,0.00,,,0.00,meteohub,2013-02-28 15:33:00,
2013-02-28 09:38:00,34.2,31.8,29.01,East,90,2.0,12.0,91,0.00,,,0.00,meteohub,2013-02-28 15:38:00,
2013-02-28 09:43:00,34.3,32.0,29.01,ENE,68,7.0,12.0,91,0.00,,,0.00,meteohub,2013-02-28 15:43:00,
2013-02-28 09:48:00,34.5,32.2,29.01,ENE,68,7.0,12.0,91,0.00,,,0.00,meteohub,2013-02-28 15:48:00,
2013-02-28 09:53:00,34.7,32.0,29.01,ESE,112,9.0,11.0,90,0.00,,,0.00,meteohub,2013-02-28 15:53:00,
2013-02-28 09:58:00,34.7,31.5,29.01,ENE,68,12.0,13.0,88,0.00,,,0.00,meteohub,2013-02-28 15:58:00,
2013-02-28 10:03:00,35.4,32.2,29.01,NNE,22,6.0,13.0,88,0.00,,,0.00,meteohub,2013-02-28 16:03:00,
2013-02-28 10:08:00,35.4,32.0,29.01,East,90,4.0,13.0,87,0.00,,,0.00,meteohub,2013-02-28 16:08:00,
2013-02-28 10:13:00,35.2,31.3,29.01,ESE,112,3.0,12.0,85,0.00,,,0.00,meteohub,2013-02-28 16:13:00,
2013-02-28 10:18:00,35.1,31.1,29.01,ESE,112,5.0,10.0,85,0.00,,,0.00,meteohub,2013-02-28 16:18:00,
2013-02-28 10:23:00,35.1,31.1,29.01,ESE,112,4.0,9.0,85,0.00,,,0.00,meteohub,2013-02-28 16:23:00,
2013-02-28 10:28:00,35.1,31.1,29.04,East,90,9.0,10.0,85,0.00,,,0.00,meteohub,2013-02-28 16:28:00,
2013-02-28 10:33:00,35.2,30.9,29.04,East,90,9.0,11.0,84,0.00,,,0.00,meteohub,2013-02-28 16:33:00,
2013-02-28 10:38:00,35.2,30.6,29.04,East,90,4.0,12.0,83,0.00,,,0.00,meteohub,2013-02-28 16:38:00,
2013-02-28 10:43:00,35.2,30.6,29.01,NNE,22,3.0,12.0,83,0.00,,,0.00,meteohub,2013-02-28 16:43:00,
2013-02-28 10:48:00,35.2,30.6,29.01,ENE,68,11.0,12.0,83,0.00,,,0.00,meteohub,2013-02-28 16:48:00,
2013-02-28 10:53:00,35.6,30.9,29.01,ENE,68,8.0,15.0,83,0.00,,,0.00,meteohub,2013-02-28 16:53:00,
2013-02-28 10:58:00,36.0,30.7,29.01,East,90,13.0,15.0,81,0.00,,,0.00,meteohub,2013-02-28 16:58:00,
2013-02-28 11:03:00,35.8,29.8,29.01,East,90,9.0,15.0,79,0.00,,,0.00,meteohub,2013-02-28 17:03:00,
2013-02-28 11:08:00,35.6,29.5,29.04,ESE,112,10.0,13.0,78,0.00,,,0.00,meteohub,2013-02-28 17:08:00,
2013-02-28 11:13:00,35.4,29.3,29.04,East,90,9.0,13.0,78,0.00,,,0.00,meteohub,2013-02-28 17:13:00,
2013-02-28 11:18:00,35.6,30.0,29.04,East,90,6.0,13.0,80,0.00,,,0.00,meteohub,2013-02-28 17:18:00,
2013-02-28 11:23:00,35.6,30.0,29.04,East,90,3.0,13.0,80,0.00,,,0.00,meteohub,2013-02-28 17:23:00,
2013-02-28 11:28:00,35.8,29.8,29.04,ENE,68,6.0,14.0,79,0.00,,,0.00,meteohub,2013-02-28 17:28:00,
2013-02-28 11:33:00,36.0,29.8,29.04,East,90,6.0,14.0,78,0.00,,,0.00,meteohub,2013-02-28 17:33:00,
2013-02-28 11:38:00,36.0,29.5,29.04,ENE,68,5.0,13.0,77,0.00,,,0.00,meteohub,2013-02-28 17:38:00,
2013-02-28 11:43:00,36.3,29.8,29.04,ESE,112,7.0,10.0,77,0.00,,,0.00,meteohub,2013-02-28 17:43:00,
2013-02-28 11:48:00,36.1,29.3,29.04,ENE,68,3.0,10.0,76,0.00,,,0.00,meteohub,2013-02-28 17:48:00,
2013-02-28 11:53:00,36.1,29.3,29.04,ESE,112,4.0,10.0,76,0.00,,,0.00,meteohub,2013-02-28 17:53:00,
2013-02-28 11:58:00,36.7,29.8,29.04,ESE,112,5.0,10.0,76,0.00,,,0.00,meteohub,2013-02-28 17:58:00,
2013-02-28 12:03:00,36.7,27.9,29.04,NNE,22,3.0,10.0,70,0.00,,,0.00,meteohub,2013-02-28 18:03:00,
2013-02-28 12:08:00,36.7,26.8,29.04,ENE,68,8.0,11.0,67,0.00,,,0.00,meteohub,2013-02-28 18:08:00,
2013-02-28 12:13:00,36.7,26.1,29.04,East,90,7.0,11.0,65,0.00,,,0.00,meteohub,2013-02-28 18:13:00,
2013-02-28 12:18:00,36.9,25.2,29.04,ESE,112,7.0,11.0,62,0.00,,,0.00,meteohub,2013-02-28 18:18:00,
2013-02-28 12:23:00,36.7,24.6,29.04,ESE,112,8.0,12.0,61,0.00,,,0.00,meteohub,2013-02-28 18:23:00,
2013-02-28 12:28:00,36.9,24.6,29.04,ENE,68,6.0,13.0,61,0.00,,,0.00,meteohub,2013-02-28 18:28:00,
2013-02-28 12:33:00,37.0,24.1,29.04,East,90,6.0,13.0,59,0.00,,,0.00,meteohub,2013-02-28 18:33:00,
2013-02-28 12:38:00,37.2,24.3,29.04,ESE,112,5.0,12.0,59,0.00,,,0.00,meteohub,2013-02-28 18:38:00,
2013-02-28 12:43:00,37.6,24.3,29.04,East,90,3.0,12.0,58,0.00,,,0.00,meteohub,2013-02-28 18:43:00,
2013-02-28 12:48:00,36.9,23.2,29.04,NNE,22,9.0,12.0,57,0.00,,,0.00,meteohub,2013-02-28 18:48:00,
2013-02-28 12:54:00,36.5,23.9,29.04,ENE,68,8.0,13.0,60,0.00,,,0.00,meteohub,2013-02-28 18:54:00,
2013-02-28 12:59:00,36.5,25.2,29.04,East,90,1.0,13.0,63,0.00,,,0.00,meteohub,2013-02-28 18:59:00,
2013-02-28 13:04:00,36.3,26.1,29.04,ESE,112,4.0,13.0,66,0.00,,,0.00,meteohub,2013-02-28 19:04:00,
2013-02-28 13:09:00,35.8,26.6,29.04,ESE,112,8.0,13.0,69,0.00,,,0.00,meteohub,2013-02-28 19:09:00,
2013-02-28 13:14:00,35.4,27.3,29.04,ESE,112,8.0,13.0,72,0.00,,,0.00,meteohub,2013-02-28 19:14:00,
2013-02-28 13:19:00,35.1,28.0,29.04,ESE,112,10.0,12.0,75,0.00,,,0.00,meteohub,2013-02-28 19:19:00,
2013-02-28 13:24:00,35.1,28.2,29.04,East,90,6.0,12.0,76,0.00,,,0.00,meteohub,2013-02-28 19:24:00,
2013-02-28 13:29:00,35.4,29.3,29.04,ESE,112,0.0,12.0,78,0.00,,,0.00,meteohub,2013-02-28 19:29:00,
2013-02-28 13:34:00,35.2,28.8,29.04,East,90,6.0,12.0,77,0.00,,,0.00,meteohub,2013-02-28 19:34:00,
2013-02-28 13:39:00,35.6,29.1,29.04,ENE,68,4.0,12.0,77,0.00,,,0.00,meteohub,2013-02-28 19:39:00,
2013-02-28 13:44:00,35.2,29.1,29.04,ENE,68,6.0,13.0,78,0.00,,,0.00,meteohub,2013-02-28 19:44:00,
2013-02-28 13:49:00,34.9,28.8,29.04,ESE,112,3.0,13.0,78,0.00,,,0.00,meteohub,2013-02-28 19:49:00,
2013-02-28 13:54:00,34.3,28.6,29.04,ESE,112,11.0,13.0,79,0.00,,,0.00,meteohub,2013-02-28 19:54:00,
2013-02-28 13:59:00,34.2,28.9,29.04,East,90,11.0,17.0,81,0.00,,,0.00,meteohub,2013-02-28 19:59:00,
2013-02-28 14:04:00,34.0,29.1,29.04,SE,135,6.0,17.0,82,0.00,,,0.00,meteohub,2013-02-28 20:04:00,
2013-02-28 14:09:00,33.8,28.9,29.04,East,90,10.0,17.0,82,0.00,,,0.00,meteohub,2013-02-28 20:09:00,
2013-02-28 14:14:00,33.8,29.1,29.04,ENE,68,6.0,15.0,83,0.00,,,0.00,meteohub,2013-02-28 20:14:00,
2013-02-28 14:19:00,33.6,29.3,29.04,East,90,13.0,15.0,84,0.00,,,0.00,meteohub,2013-02-28 20:19:00,
2013-02-28 14:24:00,33.4,29.1,29.07,East,90,15.0,17.0,84,0.00,,,0.00,meteohub,2013-02-28 20:24:00,
2013-02-28 14:29:00,33.4,29.1,29.07,East,90,16.0,17.0,84,0.00,,,0.00,meteohub,2013-02-28 20:29:00,
2013-02-28 14:34:00,33.4,28.6,29.07,ESE,112,11.0,17.0,82,0.00,,,0.00,meteohub,2013-02-28 20:34:00,
2013-02-28 14:39:00,33.6,28.4,29.07,ESE,112,11.0,21.0,81,0.00,,,0.00,meteohub,2013-02-28 20:39:00,
2013-02-28 14:44:00,33.6,28.2,29.07,ESE,112,10.0,21.0,80,0.00,,,0.00,meteohub,2013-02-28 20:44:00,
2013-02-28 14:49:00,33.8,28.2,29.07,East,90,3.0,21.0,80,0.00,,,0.00,meteohub,2013-02-28 20:49:00,
2013-02-28 14:54:00,33.8,28.0,29.07,East,90,9.0,17.0,79,0.00,,,0.00,meteohub,2013-02-28 20:54:00,
2013-02-28 14:59:00,33.4,27.0,29.07,ENE,68,6.0,17.0,77,0.00,,,0.00,meteohub,2013-02-28 20:59:00,
2013-02-28 15:04:00,33.3,26.6,29.07,ENE,68,10.0,17.0,76,0.00,,,0.00,meteohub,2013-02-28 21:04:00,
2013-02-28 15:09:00,33.3,26.6,29.10,SSE,158,9.0,19.0,76,0.00,,,0.00,meteohub,2013-02-28 21:09:00,
2013-02-28 15:14:00,33.3,25.9,29.10,ESE,112,13.0,20.0,74,0.00,,,0.00,meteohub,2013-02-28 21:14:00,
2013-02-28 15:19:00,33.3,25.0,29.10,SE,135,13.0,20.0,71,0.00,,,0.00,meteohub,2013-02-28 21:19:00,
2013-02-28 15:24:00,33.1,24.1,29.10,ENE,68,10.0,17.0,69,0.00,,,0.00,meteohub,2013-02-28 21:24:00,
2013-02-28 15:29:00,33.3,24.6,29.10,ENE,68,11.0,20.0,70,0.00,,,0.00,meteohub,2013-02-28 21:29:00,
2013-02-28 15:34:00,33.1,23.7,29.10,East,90,6.0,20.0,68,0.00,,,0.00,meteohub,2013-02-28 21:34:00,
2013-02-28 15:39:00,33.1,24.4,29.10,East,90,11.0,27.0,70,0.00,,,0.00,meteohub,2013-02-28 21:39:00,
2013-02-28 15:44:00,33.1,24.8,29.10,ESE,112,6.0,27.0,71,0.00,,,0.00,meteohub,2013-02-28 21:44:00,
2013-02-28 15:49:00,33.1,24.4,29.10,East,90,12.0,27.0,70,0.00,,,0.00,meteohub,2013-02-28 21:49:00,
2013-02-28 15:54:00,33.1,23.7,29.10,East,90,9.0,18.0,68,0.00,,,0.00,meteohub,2013-02-28 21:54:00,
2013-02-28 15:59:00,33.1,23.4,29.10,East,90,13.0,17.0,67,0.00,,,0.00,meteohub,2013-02-28 21:59:00,
2013-02-28 16:04:00,33.1,23.4,29.10,ENE,68,4.0,17.0,67,0.00,,,0.00,meteohub,2013-02-28 22:04:00,
2013-02-28 16:09:00,33.1,22.3,29.13,ENE,68,12.0,17.0,64,0.00,,,0.00,meteohub,2013-02-28 22:09:00,
2013-02-28 16:14:00,32.9,22.5,29.13,East,90,6.0,22.0,65,0.00,,,0.00,meteohub,2013-02-28 22:14:00,
2013-02-28 16:19:00,32.9,23.2,29.13,ENE,68,6.0,22.0,67,0.00,,,0.00,meteohub,2013-02-28 22:19:00,
2013-02-28 16:24:00,32.7,23.7,29.13,ESE,112,10.0,22.0,69,0.00,,,0.00,meteohub,2013-02-28 22:24:00,
2013-02-28 16:29:00,32.7,24.8,29.13,ESE,112,5.0,19.0,72,0.00,,,0.00,meteohub,2013-02-28 22:29:00,
2013-02-28 16:34:00,32.4,25.7,29.13,East,90,13.0,17.0,76,0.00,,,0.00,meteohub,2013-02-28 22:34:00,
2013-02-28 16:39:00,32.2,26.4,29.13,ESE,112,15.0,22.0,79,0.00,,,0.00,meteohub,2013-02-28 22:39:00,
2013-02-28 16:44:00,32.0,26.8,29.13,ENE,68,7.0,22.0,81,0.00,,,0.00,meteohub,2013-02-28 22:44:00,
2013-02-28 16:49:00,31.8,27.3,29.13,ENE,68,6.0,22.0,83,0.00,,,0.00,meteohub,2013-02-28 22:49:00,
2013-02-28 16:54:00,31.6,27.3,29.13,ESE,112,8.0,15.0,84,0.00,,,0.00,meteohub,2013-02-28 22:54:00,
2013-02-28 16:59:00,31.5,27.1,29.13,ESE,112,10.0,14.0,84,0.00,,,0.00,meteohub,2013-02-28 22:59:00,
2013-02-28 17:04:00,31.3,27.0,29.13,ESE,112,6.0,15.0,84,0.00,,,0.00,meteohub,2013-02-28 23:04:00,
2013-02-28 17:09:00,31.3,27.0,29.16,ESE,112,6.0,15.0,84,0.00,,,0.00,meteohub,2013-02-28 23:09:00,
2013-02-28 17:15:00,31.1,26.6,29.16,SE,135,4.0,15.0,83,0.00,,,0.00,meteohub,2013-02-28 23:15:00,
2013-02-28 17:20:00,31.1,26.2,29.16,East,90,15.0,15.0,82,0.00,,,0.00,meteohub,2013-02-28 23:20:00,
2013-02-28 17:25:00,31.1,25.7,29.16,ENE,68,6.0,14.0,80,0.00,,,0.00,meteohub,2013-02-28 23:25:00,
2013-02-28 17:30:00,31.1,25.3,29.16,SE,135,10.0,17.0,79,0.00,,,0.00,meteohub,2013-02-28 23:30:00,
2013-02-28 17:35:00,31.1,25.0,29.16,ENE,68,10.0,17.0,78,0.00,,,0.00,meteohub,2013-02-28 23:35:00,
2013-02-28 17:40:00,30.9,24.6,29.16,East,90,10.0,15.0,77,0.00,,,0.00,meteohub,2013-02-28 23:40:00,
2013-02-28 17:45:00,30.9,24.6,29.16,ENE,68,11.0,15.0,77,0.00,,,0.00,meteohub,2013-02-28 23:45:00,
2013-02-28 17:50:00,30.9,24.3,29.16,ENE,68,1.0,15.0,76,0.00,,,0.00,meteohub,2013-02-28 23:50:00,
2013-02-28 17:55:00,30.9,24.3,29.16,ESE,112,13.0,17.0,76,0.00,,,0.00,meteohub,2013-02-28 23:55:00,
2013-02-28 18:00:00,30.7,23.7,29.16,SSE,158,5.0,17.0,75,0.00,,,0.00,meteohub,2013-03-01 00:00:00,
2013-02-28 18:05:00,30.7,23.2,29.16,ESE,112,15.0,23.0,73,0.00,,,0.00,meteohub,2013-03-01 00:05:00,
2013-02-28 18:10:00,30.9,22.3,29.19,ESE,112,13.0,23.0,70,0.00,,,0.00,meteohub,2013-03-01 00:10:00,
2013-02-28 18:15:00,31.1,20.7,29.19,ENE,68,9.0,15.0,65,0.00,,,0.00,meteohub,2013-03-01 00:15:00,
2013-02-28 18:20:00,31.1,19.9,29.19,ENE,68,6.0,18.0,63,0.00,,,0.00,meteohub,2013-03-01 00:20:00,
2013-02-28 18:25:00,31.1,19.6,29.19,ESE,112,8.0,13.0,62,0.00,,,0.00,meteohub,2013-03-01 00:25:00,
2013-02-28 18:30:00,31.1,19.6,29.19,ESE,112,10.0,12.0,62,0.00,,,0.00,meteohub,2013-03-01 00:30:00,
2013-02-28 18:35:00,31.1,18.9,29.19,ENE,68,10.0,16.0,60,0.00,,,0.00,meteohub,2013-03-01 00:35:00,
2013-02-28 18:40:00,31.1,19.2,29.19,East,90,10.0,16.0,61,0.00,,,0.00,meteohub,2013-03-01 00:40:00,
2013-02-28 18:45:00,31.1,18.9,29.19,ESE,112,8.0,16.0,60,0.00,,,0.00,meteohub,2013-03-01 00:45:00,
2013-02-28 18:50:00,31.1,19.2,29.19,ESE,112,13.0,15.0,61,0.00,,,0.00,meteohub,2013-03-01 00:50:00,
2013-02-28 18:55:00,31.1,18.9,29.19,ESE,112,2.0,19.0,60,0.00,,,0.00,meteohub,2013-03-01 00:55:00,
2013-02-28 19:00:00,31.1,19.2,29.19,ESE,112,3.0,19.0,61,0.00,,,0.00,meteohub,2013-03-01 01:00:00,
2013-02-28 19:05:00,31.1,19.6,29.19,ENE,68,13.0,19.0,62,0.00,,,0.00,meteohub,2013-03-01 01:05:00,
2013-02-28 19:10:00,31.1,19.2,29.19,East,90,4.0,15.0,61,0.00,,,0.00,meteohub,2013-03-01 01:10:00,
2013-02-28 19:15:00,31.1,19.6,29.19,NNE,22,4.0,15.0,62,0.00,,,0.00,meteohub,2013-03-01 01:15:00,
2013-02-28 19:20:00,31.1,19.6,29.19,East,90,9.0,15.0,62,0.00,,,0.00,meteohub,2013-03-01 01:20:00,
2013-02-28 19:25:00,31.1,19.6,29.19,ESE,112,6.0,11.0,62,0.00,,,0.00,meteohub,2013-03-01 01:25:00,
2013-02-28 19:30:00,30.9,20.1,29.19,ESE,112,4.0,13.0,64,0.00,,,0.00,meteohub,2013-03-01 01:30:00,
2013-02-28 19:35:00,30.7,21.4,29.19,ESE,112,6.0,13.0,68,0.00,,,0.00,meteohub,2013-03-01 01:35:00,
2013-02-28 19:40:00,30.6,21.9,29.19,ESE,112,3.0,13.0,70,0.00,,,0.00,meteohub,2013-03-01 01:40:00,
2013-02-28 19:45:00,30.6,22.6,29.19,SW,225,7.0,13.0,72,0.00,,,0.00,meteohub,2013-03-01 01:45:00,
2013-02-28 19:50:00,30.6,23.4,29.19,ENE,68,6.0,13.0,74,0.00,,,0.00,meteohub,2013-03-01 01:50:00,
2013-02-28 19:55:00,30.6,23.4,29.19,East,90,3.0,16.0,74,0.00,,,0.00,meteohub,2013-03-01 01:55:00,
2013-02-28 20:00:00,30.4,23.4,29.19,SSE,158,5.0,16.0,75,0.00,,,0.00,meteohub,2013-03-01 02:00:00,
2013-02-28 20:05:00,30.4,23.4,29.19,ENE,68,0.0,11.0,75,0.00,,,0.00,meteohub,2013-03-01 02:05:00,
2013-02-28 20:10:00,30.4,23.4,29.19,ESE,112,6.0,11.0,75,0.00,,,0.00,meteohub,2013-03-01 02:10:00,
2013-02-28 20:15:00,30.4,22.5,29.19,ESE,112,5.0,16.0,72,0.00,,,0.00,meteohub,2013-03-01 02:15:00,
2013-02-28 20:20:00,30.4,22.5,29.19,ENE,68,6.0,16.0,72,0.00,,,0.00,meteohub,2013-03-01 02:20:00,
2013-02-28 20:25:00,30.6,22.6,29.19,ESE,112,10.0,13.0,72,0.00,,,0.00,meteohub,2013-03-01 02:25:00,
2013-02-28 20:30:00,30.6,23.0,29.19,ENE,68,11.0,13.0,73,0.00,,,0.00,meteohub,2013-03-01 02:30:00,
2013-02-28 20:35:00,30.6,22.6,29.19,East,90,7.0,13.0,72,0.00,,,0.00,meteohub,2013-03-01 02:35:00,
2013-02-28 20:40:00,30.6,22.3,29.19,ENE,68,8.0,12.0,71,0.00,,,0.00,meteohub,2013-03-01 02:40:00,
2013-02-28 20:45:00,30.6,21.6,29.19,ENE,68,7.0,17.0,69,0.00,,,0.00,meteohub,2013-03-01 02:45:00,
2013-02-28 20:50:00,30.6,21.9,29.19,East,90,9.0,17.0,70,0.00,,,0.00,meteohub,2013-03-01 02:50:00,
2013-02-28 20:55:00,30.6,22.3,29.19,ESE,112,10.0,17.0,71,0.00,,,0.00,meteohub,2013-03-01 02:55:00,
2013-02-28 21:00:00,30.6,22.6,29.19,East,90,7.0,15.0,72,0.00,,,0.00,meteohub,2013-03-01 03:00:00,
2013-02-28 21:06:00,30.4,22.1,29.19,East,90,9.0,15.0,71,0.00,,,0.00,meteohub,2013-03-01 03:06:00,
2013-02-28 21:10:00,30.4,22.1,29.19,ENE,68,10.0,15.0,71,0.00,,,0.00,meteohub,2013-03-01 03:10:00,
2013-02-28 21:16:00,30.4,21.7,29.19,ESE,112,8.0,15.0,70,0.00,,,0.00,meteohub,2013-03-01 03:16:00,
2013-02-28 21:21:00,30.4,21.0,29.19,ENE,68,10.0,15.0,68,0.00,,,0.00,meteohub,2013-03-01 03:21:00,
2013-02-28 21:26:00,30.4,20.1,29.19,East,90,12.0,15.0,65,0.00,,,0.00,meteohub,2013-03-01 03:26:00,
2013-02-28 21:31:00,30.4,19.8,29.19,East,90,10.0,15.0,64,0.00,,,0.00,meteohub,2013-03-01 03:31:00,
2013-02-28 21:36:00,30.4,18.9,29.19,ESE,112,6.0,15.0,62,0.00,,,0.00,meteohub,2013-03-01 03:36:00,
2013-02-28 21:41:00,30.4,18.9,29.19,ENE,68,9.0,13.0,62,0.00,,,0.00,meteohub,2013-03-01 03:41:00,
2013-02-28 21:46:00,30.4,19.4,29.19,ENE,68,6.0,13.0,63,0.00,,,0.00,meteohub,2013-03-01 03:46:00,
2013-02-28 21:51:00,30.4,19.8,29.19,ESE,112,10.0,13.0,64,0.00,,,0.00,meteohub,2013-03-01 03:51:00,
2013-02-28 21:56:00,30.4,20.1,29.19,ENE,68,3.0,15.0,65,0.00,,,0.00,meteohub,2013-03-01 03:56:00,
2013-02-28 22:01:00,30.4,20.8,29.19,ESE,112,6.0,15.0,67,0.00,,,0.00,meteohub,2013-03-01 04:01:00,
2013-02-28 22:06:00,30.2,20.3,29.19,ESE,112,8.0,15.0,66,0.00,,,0.00,meteohub,2013-03-01 04:06:00,
2013-02-28 22:11:00,30.2,20.3,29.19,East,90,7.0,15.0,66,0.00,,,0.00,meteohub,2013-03-01 04:11:00,
2013-02-28 22:16:00,30.4,20.1,29.19,South,180,6.0,15.0,65,0.00,,,0.00,meteohub,2013-03-01 04:16:00,
2013-02-28 22:21:00,30.2,20.7,29.19,ESE,112,8.0,15.0,67,0.00,,,0.00,meteohub,2013-03-01 04:21:00,
2013-02-28 22:26:00,30.2,21.0,29.19,ENE,68,15.0,15.0,68,0.00,,,0.00,meteohub,2013-03-01 04:26:00,
2013-02-28 22:31:00,30.2,21.9,29.19,ESE,112,9.0,15.0,71,0.00,,,0.00,meteohub,2013-03-01 04:31:00,
2013-02-28 22:36:00,30.2,22.6,29.19,ESE,112,9.0,17.0,73,0.00,,,0.00,meteohub,2013-03-01 04:36:00,
2013-02-28 22:41:00,30.2,23.5,29.19,NNE,22,6.0,17.0,76,0.00,,,0.00,meteohub,2013-03-01 04:41:00,
2013-02-28 22:46:00,30.0,23.7,29.19,ENE,68,5.0,17.0,77,0.00,,,0.00,meteohub,2013-03-01 04:46:00,
2013-02-28 22:51:00,29.8,24.4,29.19,ESE,112,3.0,13.0,80,0.00,,,0.00,meteohub,2013-03-01 04:51:00,
2013-02-28 22:56:00,29.7,25.2,29.19,ESE,112,4.0,15.0,83,0.00,,,0.00,meteohub,2013-03-01 04:56:00,
2013-02-28 23:00:00,29.7,25.5,29.19,East,90,3.0,15.0,84,0.00,,,0.00,meteohub,2013-03-01 05:00:00,
2013-02-28 23:05:00,29.7,25.7,29.19,SSE,158,4.0,13.0,85,0.00,,,0.00,meteohub,2013-03-01 05:05:00,
2013-02-28 23:06:00,29.7,26.1,29.19,ESE,112,4.0,13.0,86,0.00,,,0.00,meteohub,2013-03-01 05:06:00,
2013-02-28 23:11:00,29.8,26.2,29.19,East,90,5.0,10.0,86,0.00,,,0.00,meteohub,2013-03-01 05:11:00,
2013-02-28 23:16:00,29.8,25.9,29.19,ESE,112,4.0,10.0,85,0.00,,,0.00,meteohub,2013-03-01 05:16:00,
2013-02-28 23:21:00,29.8,25.9,29.19,ENE,68,5.0,10.0,85,0.00,,,0.00,meteohub,2013-03-01 05:21:00,
2013-02-28 23:26:00,29.8,25.5,29.19,ENE,68,2.0,9.0,84,0.00,,,0.00,meteohub,2013-03-01 05:26:00,
2013-02-28 23:31:00,30.0,25.5,29.19,ESE,112,3.0,6.0,83,0.00,,,0.00,meteohub,2013-03-01 05:31:00,
2013-02-28 23:36:00,30.0,25.2,29.19,ENE,68,2.0,6.0,82,0.00,,,0.00,meteohub,2013-03-01 05:36:00,
2013-02-28 23:41:00,30.0,23.7,29.19,ESE,112,4.0,6.0,77,0.00,,,0.00,meteohub,2013-03-01 05:41:00,
2013-02-28 23:46:00,30.0,21.4,29.19,ESE,112,4.0,6.0,70,0.00,,,0.00,meteohub,2013-03-01 05:46:00,
2013-02-28 23:51:00,30.2,19.2,29.19,SE,135,3.0,6.0,63,0.00,,,0.00,meteohub,2013-03-01 05:51:00,
2013-02-28 23:56:00,30.2,18.0,29.19,ESE,112,3.0,8.0,60,0.00,,,0.00,meteohub,2013-03-01 05:56:00,